Year,Month,Day,Hour,Minute,Value (Times are PST for temperature in C)
2015,04,25,09,19,9.40
2015,04,25,09,20,9.40
2015,04,25,09,21,9.40
2015,04,25,09,22,9.40
2015,04,25,09,23,9.40
2015,04,25,09,24,9.40
2015,04,25,09,25,9.40
2015,04,25,09,26,9.50
2015,04,25,09,27,9.60
2015,04,25,09,28,9.60
2015,04,25,09,29,9.70
2015,04,25,09,30,9.70
2015,04,25,09,31,9.70
2015,04,25,09,32,9.70
2015,04,25,09,33,9.70
2015,04,25,09,34,9.70
2015,04,25,09,35,9.70
2015,04,25,09,36,9.70
2015,04,25,09,37,9.60
2015,04,25,09,38,9.60
2015,04,25,09,39,9.40
2015,04,25,09,40,9.40
2015,04,25,09,41,9.30
2015,04,25,09,42,9.30
2015,04,25,09,43,9.20
2015,04,25,09,44,9.20
2015,04,25,09,45,9.20
2015,04,25,09,46,9.20
2015,04,25,09,47,9.10
2015,04,25,09,48,9.10
2015,04,25,09,49,9.10
2015,04,25,09,50,9.10
2015,04,25,09,51,9.10
2015,04,25,09,52,9.00
2015,04,25,09,53,9.00
2015,04,25,09,54,8.90
2015,04,25,09,55,8.90
2015,04,25,09,56,8.90
2015,04,25,09,57,8.80
2015,04,25,09,58,8.80
2015,04,25,09,59,8.80
2015,04,25,10,00,8.80
2015,04,25,10,01,8.90
2015,04,25,10,02,8.90
2015,04,25,10,03,8.90
2015,04,25,10,04,8.90
2015,04,25,10,05,8.80
2015,04,25,10,06,8.70
2015,04,25,10,07,8.60
2015,04,25,10,08,8.50
2015,04,25,10,09,8.40
2015,04,25,10,10,8.40
2015,04,25,10,11,8.40
2015,04,25,10,12,8.30
2015,04,25,10,13,8.30
2015,04,25,10,14,8.40
2015,04,25,10,15,8.40
2015,04,25,10,16,8.50
2015,04,25,10,17,8.50
2015,04,25,10,18,8.60
2015,04,25,10,19,8.60
2015,04,25,10,20,8.60
2015,04,25,10,21,8.60
2015,04,25,10,22,8.70
2015,04,25,10,23,8.70
2015,04,25,10,24,8.70
2015,04,25,10,25,8.70
2015,04,25,10,26,8.70
2015,04,25,10,27,8.70
2015,04,25,10,28,8.70
2015,04,25,10,29,8.80
2015,04,25,10,30,8.80
2015,04,25,10,31,8.80
2015,04,25,10,32,8.80
2015,04,25,10,33,8.80
2015,04,25,10,34,8.70
2015,04,25,10,35,8.70
2015,04,25,10,36,8.70
2015,04,25,10,37,8.80
2015,04,25,10,38,8.80
2015,04,25,10,39,8.80
2015,04,25,10,40,8.80
2015,04,25,10,41,8.80
2015,04,25,10,42,8.80
2015,04,25,10,43,8.80
2015,04,25,10,44,8.80
2015,04,25,10,45,8.90
2015,04,25,10,46,8.90
2015,04,25,10,47,8.90
2015,04,25,10,48,8.90
2015,04,25,10,49,8.90
2015,04,25,10,50,8.80
2015,04,25,10,51,8.80
2015,04,25,10,52,8.80
2015,04,25,10,53,8.80
2015,04,25,10,54,8.70
2015,04,25,10,55,8.70
2015,04,25,10,56,8.70
2015,04,25,10,57,8.70
2015,04,25,10,58,8.70
2015,04,25,10,59,8.70
2015,04,25,11,00,8.70
2015,04,25,11,01,8.70
2015,04,25,11,02,8.70
2015,04,25,11,03,8.70
2015,04,25,11,04,8.70
2015,04,25,11,05,8.80
2015,04,25,11,06,8.80
2015,04,25,11,07,8.90
2015,04,25,11,08,8.90
2015,04,25,11,09,9.00
2015,04,25,11,10,9.10
2015,04,25,11,11,9.20
2015,04,25,11,12,9.40
2015,04,25,11,13,9.60
2015,04,25,11,14,9.70
2015,04,25,11,15,9.80
2015,04,25,11,16,10.00
2015,04,25,11,17,10.10
2015,04,25,11,18,10.20
2015,04,25,11,19,10.20
2015,04,25,11,20,10.20
2015,04,25,11,21,10.20
2015,04,25,11,22,10.20
2015,04,25,11,23,10.20
2015,04,25,11,24,10.20
2015,04,25,11,25,10.10
2015,04,25,11,26,10.10
2015,04,25,11,27,10.10
2015,04,25,11,28,10.10
2015,04,25,11,29,10.10
2015,04,25,11,30,10.00
2015,04,25,11,31,10.00
2015,04,25,11,32,10.00
2015,04,25,11,33,9.90
2015,04,25,11,34,9.90
2015,04,25,11,35,9.90
2015,04,25,11,36,9.90
2015,04,25,11,37,9.90
2015,04,25,11,38,9.80
2015,04,25,11,39,9.60
2015,04,25,11,40,9.50
2015,04,25,11,41,9.40
2015,04,25,11,42,9.30
2015,04,25,11,43,9.10
2015,04,25,11,44,9.00
2015,04,25,11,45,8.90
2015,04,25,11,46,8.80
2015,04,25,11,47,8.70
2015,04,25,11,48,8.60
2015,04,25,11,49,8.50
2015,04,25,11,50,8.50
2015,04,25,11,51,8.50
2015,04,25,11,52,8.50
2015,04,25,11,53,8.40
2015,04,25,11,54,8.40
2015,04,25,11,55,8.40
2015,04,25,11,56,8.40
2015,04,25,11,57,8.40
2015,04,25,11,58,8.40
2015,04,25,11,59,8.40
2015,04,25,12,00,8.50
2015,04,25,12,01,8.60
2015,04,25,12,02,8.60
2015,04,25,12,03,8.70
2015,04,25,12,04,8.80
2015,04,25,12,05,8.90
2015,04,25,12,06,9.10
2015,04,25,12,07,9.30
2015,04,25,12,08,9.60
2015,04,25,12,09,9.80
2015,04,25,12,10,10.00
2015,04,25,12,11,10.20
2015,04,25,12,12,10.30
2015,04,25,12,13,10.30
2015,04,25,12,14,10.30
2015,04,25,12,15,10.40
2015,04,25,12,16,10.40
2015,04,25,12,17,10.60
2015,04,25,12,18,10.70
2015,04,25,12,19,10.80
2015,04,25,12,20,10.80
2015,04,25,12,21,10.70
2015,04,25,12,22,10.60
2015,04,25,12,23,10.40
2015,04,25,12,24,10.30
2015,04,25,12,25,10.30
2015,04,25,12,26,10.30
2015,04,25,12,27,10.30
2015,04,25,12,28,10.30
2015,04,25,12,29,10.30
2015,04,25,12,30,10.40
2015,04,25,12,31,10.50
2015,04,25,12,32,10.60
2015,04,25,12,33,10.70
2015,04,25,12,34,10.80
2015,04,25,12,35,10.80
2015,04,25,12,36,10.80
2015,04,25,12,37,10.80
2015,04,25,12,38,10.80
2015,04,25,12,39,10.80
2015,04,25,12,40,10.80
2015,04,25,12,41,10.80
2015,04,25,12,42,10.70
2015,04,25,12,43,10.60
2015,04,25,12,44,10.50
2015,04,25,12,45,10.40
2015,04,25,12,46,10.30
2015,04,25,12,47,10.20
2015,04,25,12,48,10.20
2015,04,25,12,49,10.30
2015,04,25,12,50,10.30
2015,04,25,12,51,10.20
2015,04,25,12,52,10.10
2015,04,25,12,53,10.10
2015,04,25,12,54,10.00
2015,04,25,12,55,10.10
2015,04,25,12,56,10.10
2015,04,25,12,57,10.10
2015,04,25,12,58,10.10
2015,04,25,12,59,10.10
2015,04,25,13,00,10.00
2015,04,25,13,01,10.00
2015,04,25,13,02,10.00
2015,04,25,13,03,9.90
2015,04,25,13,04,9.80
2015,04,25,13,05,9.80
2015,04,25,13,06,9.80
2015,04,25,13,07,9.80
2015,04,25,13,08,9.80
2015,04,25,13,09,9.80
2015,04,25,13,10,9.70
2015,04,25,13,11,9.70
2015,04,25,13,12,9.80
2015,04,25,13,13,9.80
2015,04,25,13,14,9.80
2015,04,25,13,15,9.80
2015,04,25,13,16,9.90
2015,04,25,13,17,9.90
2015,04,25,13,18,9.90
2015,04,25,13,19,9.90
2015,04,25,13,20,10.00
2015,04,25,13,21,10.10
2015,04,25,13,22,10.20
2015,04,25,13,23,10.20
2015,04,25,13,24,10.20
2015,04,25,13,25,10.30
2015,04,25,13,26,10.50
2015,04,25,13,27,10.60
2015,04,25,13,28,10.70
2015,04,25,13,29,10.70
2015,04,25,13,30,10.70
2015,04,25,13,31,10.70
2015,04,25,13,32,10.70
2015,04,25,13,33,10.70
2015,04,25,13,34,10.60
2015,04,25,13,35,10.60
2015,04,25,13,36,10.60
2015,04,25,13,37,10.60
2015,04,25,13,38,10.70
2015,04,25,13,39,10.80
2015,04,25,13,40,10.80
2015,04,25,13,41,10.70
2015,04,25,13,42,10.70
2015,04,25,13,43,10.80
2015,04,25,13,44,10.80
2015,04,25,13,45,10.70
2015,04,25,13,46,10.70
2015,04,25,13,47,10.80
2015,04,25,13,48,10.90
2015,04,25,13,49,11.00
2015,04,25,13,50,11.10
2015,04,25,13,51,11.20
2015,04,25,13,52,11.20
2015,04,25,13,53,11.10
2015,04,25,13,54,11.10
2015,04,25,13,55,11.00
2015,04,25,13,56,11.00
2015,04,25,13,57,10.90
2015,04,25,13,58,10.90
2015,04,25,13,59,10.80
2015,04,25,14,00,10.80
2015,04,25,14,01,10.70
2015,04,25,14,02,10.80
2015,04,25,14,03,10.80
2015,04,25,14,04,10.80
2015,04,25,14,05,10.80
2015,04,25,14,06,10.80
2015,04,25,14,07,10.80
2015,04,25,14,08,10.80
2015,04,25,14,09,10.80
2015,04,25,14,10,10.80
2015,04,25,14,11,10.80
2015,04,25,14,12,10.80
2015,04,25,14,13,10.90
2015,04,25,14,14,11.00
2015,04,25,14,15,11.00
2015,04,25,14,16,11.10
2015,04,25,14,17,11.30
2015,04,25,14,18,11.40
2015,04,25,14,19,11.50
2015,04,25,14,20,11.50
2015,04,25,14,21,11.60
2015,04,25,14,22,11.70
2015,04,25,14,23,11.80
2015,04,25,14,24,12.00
2015,04,25,14,25,12.10
2015,04,25,14,26,12.20
2015,04,25,14,27,12.10
2015,04,25,14,28,12.10
2015,04,25,14,29,12.10
2015,04,25,14,30,12.20
2015,04,25,14,31,12.40
2015,04,25,14,32,12.50
2015,04,25,14,33,12.60
2015,04,25,14,34,12.70
2015,04,25,14,35,12.90
2015,04,25,14,36,12.90
2015,04,25,14,37,13.00
2015,04,25,14,38,13.10
2015,04,25,14,39,13.10
2015,04,25,14,40,13.10
2015,04,25,14,41,13.10
2015,04,25,14,42,13.20
2015,04,25,14,43,13.20
2015,04,25,14,44,13.30
2015,04,25,14,45,13.30
2015,04,25,14,46,13.20
2015,04,25,14,47,12.90
2015,04,25,14,48,12.70
2015,04,25,14,49,12.40
2015,04,25,14,50,12.30
2015,04,25,14,51,12.20
2015,04,25,14,52,12.10
2015,04,25,14,53,12.10
2015,04,25,14,54,12.10
2015,04,25,14,55,12.10
2015,04,25,14,56,12.10
2015,04,25,14,57,12.10
2015,04,25,14,58,12.00
2015,04,25,14,59,11.90
2015,04,25,15,00,11.80
2015,04,25,15,01,11.80
2015,04,25,15,02,11.80
2015,04,25,15,03,11.90
2015,04,25,15,04,12.00
2015,04,25,15,05,12.10
2015,04,25,15,06,12.20
2015,04,25,15,07,12.20
2015,04,25,15,08,12.30
2015,04,25,15,09,12.30
2015,04,25,15,10,12.30
2015,04,25,15,11,12.40
2015,04,25,15,12,12.50
2015,04,25,15,13,12.60
2015,04,25,15,14,12.60
2015,04,25,15,15,12.70
2015,04,25,15,16,12.80
2015,04,25,15,17,12.90
2015,04,25,15,18,13.00
2015,04,25,15,19,13.10
2015,04,25,15,20,13.00
2015,04,25,15,21,12.90
2015,04,25,15,22,12.80
2015,04,25,15,23,12.80
2015,04,25,15,24,12.90
2015,04,25,15,25,13.00
2015,04,25,15,26,13.10
2015,04,25,15,27,13.10
2015,04,25,15,28,13.20
2015,04,25,15,29,13.10
2015,04,25,15,30,13.00
2015,04,25,15,31,12.90
2015,04,25,15,32,12.80
2015,04,25,15,33,12.80
2015,04,25,15,34,12.80
2015,04,25,15,35,12.80
2015,04,25,15,36,12.80
2015,04,25,15,37,12.80
2015,04,25,15,38,12.60
2015,04,25,15,39,12.40
2015,04,25,15,40,12.20
2015,04,25,15,41,12.00
2015,04,25,15,42,11.90
2015,04,25,15,43,11.80
2015,04,25,15,44,11.80
2015,04,25,15,45,11.80
2015,04,25,15,46,11.80
2015,04,25,15,47,11.80
2015,04,25,15,48,11.80
2015,04,25,15,49,11.80
2015,04,25,15,50,11.80
2015,04,25,15,51,11.80
2015,04,25,15,52,11.90
2015,04,25,15,53,11.90
2015,04,25,15,54,12.00
2015,04,25,15,55,12.10
2015,04,25,15,56,12.20
2015,04,25,15,57,12.20
2015,04,25,15,58,12.30
2015,04,25,15,59,12.40
2015,04,25,16,00,12.50
2015,04,25,16,01,12.60
2015,04,25,16,02,12.60
2015,04,25,16,03,12.50
2015,04,25,16,04,12.50
2015,04,25,16,05,12.60
2015,04,25,16,06,12.70
2015,04,25,16,07,12.80
2015,04,25,16,08,12.70
2015,04,25,16,09,12.70
2015,04,25,16,10,12.70
2015,04,25,16,11,12.70
2015,04,25,16,12,12.80
2015,04,25,16,13,12.90
2015,04,25,16,14,12.90
2015,04,25,16,15,12.90
2015,04,25,16,16,12.90
2015,04,25,16,17,12.90
2015,04,25,16,18,13.00
2015,04,25,16,19,13.00
2015,04,25,16,20,12.90
2015,04,25,16,21,12.80
2015,04,25,16,22,12.70
2015,04,25,16,23,12.60
2015,04,25,16,24,12.40
2015,04,25,16,25,12.40
2015,04,25,16,26,12.30
2015,04,25,16,27,12.30
2015,04,25,16,28,12.40
2015,04,25,16,29,12.50
2015,04,25,16,30,12.70
2015,04,25,16,31,12.80
2015,04,25,16,32,12.90
2015,04,25,16,33,12.90
2015,04,25,16,34,13.00
2015,04,25,16,35,13.00
2015,04,25,16,36,13.00
2015,04,25,16,37,13.00
2015,04,25,16,38,13.00
2015,04,25,16,39,12.90
2015,04,25,16,40,12.70
2015,04,25,16,41,12.60
2015,04,25,16,42,12.60
2015,04,25,16,43,12.60
2015,04,25,16,44,12.60
2015,04,25,16,45,12.50
2015,04,25,16,46,12.40
2015,04,25,16,47,12.40
2015,04,25,16,48,12.40
2015,04,25,16,49,12.40
2015,04,25,16,50,12.40
2015,04,25,16,51,12.40
2015,04,25,16,52,12.50
2015,04,25,16,53,12.50
2015,04,25,16,54,12.60
2015,04,25,16,55,12.50
2015,04,25,16,56,12.40
2015,04,25,16,57,12.30
2015,04,25,16,58,12.20
2015,04,25,16,59,12.20
2015,04,25,17,00,12.30
2015,04,25,17,01,12.30
2015,04,25,17,02,12.40
2015,04,25,17,03,12.40
2015,04,25,17,04,12.50
2015,04,25,17,05,12.60
2015,04,25,17,06,12.60
2015,04,25,17,07,12.60
2015,04,25,17,08,12.60
2015,04,25,17,09,12.60
2015,04,25,17,10,12.50
2015,04,25,17,11,12.50
2015,04,25,17,12,12.50
2015,04,25,17,13,12.50
2015,04,25,17,14,12.50
2015,04,25,17,15,12.40
2015,04,25,17,16,12.50
2015,04,25,17,17,12.50
2015,04,25,17,18,12.50
2015,04,25,17,19,12.60
2015,04,25,17,20,12.70
2015,04,25,17,21,12.60
2015,04,25,17,22,12.50
2015,04,25,17,23,12.40
2015,04,25,17,24,12.30
2015,04,25,17,25,12.20
2015,04,25,17,26,12.20
2015,04,25,17,27,12.10
2015,04,25,17,28,12.10
2015,04,25,17,29,12.10
2015,04,25,17,30,12.20
2015,04,25,17,31,12.30
2015,04,25,17,32,12.40
2015,04,25,17,33,12.50
2015,04,25,17,34,12.60
2015,04,25,17,35,12.60
2015,04,25,17,36,12.60
2015,04,25,17,37,12.70
2015,04,25,17,38,12.70
2015,04,25,17,39,12.70
2015,04,25,17,40,12.70
2015,04,25,17,41,12.60
2015,04,25,17,42,12.60
2015,04,25,17,43,12.50
2015,04,25,17,44,12.50
2015,04,25,17,45,12.50
2015,04,25,17,46,12.50
2015,04,25,17,47,12.60
2015,04,25,17,48,12.70
2015,04,25,17,49,12.80
2015,04,25,17,50,12.90
2015,04,25,17,51,13.00
2015,04,25,17,52,13.20
2015,04,25,17,53,13.30
2015,04,25,17,54,13.40
2015,04,25,17,55,13.50
2015,04,25,17,56,13.50
2015,04,25,17,57,13.30
2015,04,25,17,58,13.30
2015,04,25,17,59,13.30
2015,04,25,18,00,13.20
2015,04,25,18,01,13.20
2015,04,25,18,02,13.20
2015,04,25,18,03,13.10
2015,04,25,18,04,13.10
2015,04,25,18,05,13.10
2015,04,25,18,06,13.00
2015,04,25,18,07,12.90
2015,04,25,18,08,12.80
2015,04,25,18,09,12.70
2015,04,25,18,10,12.70
2015,04,25,18,11,12.70
2015,04,25,18,12,12.60
2015,04,25,18,13,12.60
2015,04,25,18,14,12.70
2015,04,25,18,15,12.70
2015,04,25,18,16,12.80
2015,04,25,18,17,12.80
2015,04,25,18,18,12.70
2015,04,25,18,19,12.80
2015,04,25,18,20,12.80
2015,04,25,18,21,12.80
2015,04,25,18,22,12.70
2015,04,25,18,23,12.70
2015,04,25,18,24,12.70
2015,04,25,18,25,12.70
2015,04,25,18,26,12.60
2015,04,25,18,27,12.60
2015,04,25,18,28,12.60
2015,04,25,18,29,12.50
2015,04,25,18,30,12.40
2015,04,25,18,31,12.40
2015,04,25,18,32,12.50
2015,04,25,18,33,12.50
2015,04,25,18,34,12.40
2015,04,25,18,35,12.40
2015,04,25,18,36,12.40
2015,04,25,18,37,12.40
2015,04,25,18,38,12.50
2015,04,25,18,39,12.60
2015,04,25,18,40,12.60
2015,04,25,18,41,12.50
2015,04,25,18,42,12.50
2015,04,25,18,43,12.40
2015,04,25,18,44,12.30
2015,04,25,18,45,12.30
2015,04,25,18,46,12.30
2015,04,25,18,47,12.30
2015,04,25,18,48,12.30
2015,04,25,18,49,12.20
2015,04,25,18,50,12.20
2015,04,25,18,51,12.20
2015,04,25,18,52,12.20
2015,04,25,18,53,12.20
2015,04,25,18,54,12.10
2015,04,25,18,55,12.10
2015,04,25,18,56,12.00
2015,04,25,18,57,12.00
2015,04,25,18,58,12.00
2015,04,25,18,59,11.90
2015,04,25,19,00,11.90
2015,04,25,19,01,11.90
2015,04,25,19,02,11.90
2015,04,25,19,03,11.90
2015,04,25,19,04,11.80
2015,04,25,19,05,11.80
2015,04,25,19,06,11.80
2015,04,25,19,07,11.80
2015,04,25,19,08,11.80
2015,04,25,19,09,11.70
2015,04,25,19,10,11.70
2015,04,25,19,11,11.70
2015,04,25,19,12,11.60
2015,04,25,19,13,11.60
2015,04,25,19,14,11.60
2015,04,25,19,15,11.60
2015,04,25,19,16,11.60
2015,04,25,19,17,11.60
2015,04,25,19,18,11.60
2015,04,25,19,19,11.60
2015,04,25,19,20,11.60
2015,04,25,19,21,11.60
2015,04,25,19,22,11.60
2015,04,25,19,23,11.60
2015,04,25,19,24,11.60
2015,04,25,19,25,11.60
2015,04,25,19,26,11.50
2015,04,25,19,27,11.50
2015,04,25,19,28,11.40
2015,04,25,19,29,11.40
2015,04,25,19,30,11.30
2015,04,25,19,31,11.30
2015,04,25,19,32,11.30
2015,04,25,19,33,11.20
2015,04,25,19,34,11.20
2015,04,25,19,35,11.20
2015,04,25,19,36,11.20
2015,04,25,19,37,11.20
2015,04,25,19,38,11.20
2015,04,25,19,39,11.20
2015,04,25,19,40,11.20
2015,04,25,19,41,11.10
2015,04,25,19,42,11.20
2015,04,25,19,43,11.20
2015,04,25,19,44,11.10
2015,04,25,19,45,11.10
2015,04,25,19,46,11.10
2015,04,25,19,47,11.10
2015,04,25,19,48,11.10
2015,04,25,19,49,11.10
2015,04,25,19,50,11.10
2015,04,25,19,51,11.10
2015,04,25,19,52,11.10
2015,04,25,19,53,11.10
2015,04,25,19,54,11.10
2015,04,25,19,55,11.10
2015,04,25,19,56,11.10
